EW4071 Weather Reports


time (UTC)temp
F
wind
direction
speed
knots
gust
knots
rain 1hr
in
rain 24hr
in
rain mn
in
humidity
%
barometer
mb
20260906203022 100 137 0.0 8.7 0.00 0.00 0.00 36 1007.9
20260906201520 101 157 2.6 7.8 0.00 0.00 0.00 35 1008.1
20260906200030 101 125 1.7 6.1 0.00 0.00 0.00 35 1008.4
20260906194515 100 144 0.0 10.4 0.00 0.00 0.00 36 1008.6
20260906193015 101 242 2.6 8.7 0.00 0.00 0.00 35 1008.9
20260906191519 100 249 0.9 6.1 0.00 0.00 0.00 36 1009.1
20260906190012 100 187 0.0 0.0 0.00 0.00 0.00 37 1009.3
20260906184509 100 211 0.0 5.2 0.00 0.00 0.00 37 1009.6
20260906183011 99 133 1.7 7.8 0.00 0.00 0.00 39 1010.0
20260906181526 99 261 0.0 5.2 0.00 0.00 0.00 39 1010.2
20260906180018 99 232 0.0 1.7 0.00 0.00 0.00 39 1010.5
20260906174505 99 120 0.0 0.0 0.00 0.00 0.00 40 1010.7
20260906173003 98 242 0.0 0.0 0.00 0.00 0.00 41 1011.0
20260906171502 98 291 0.0 0.0 0.00 0.00 0.00 42 1011.3
20260906170108 97 286 0.0 0.9 0.00 0.00 0.00 43 1011.5
20260906164555 96 295 0.0 0.0 0.00 0.00 0.00 43 1011.6
20260906163057 95 295 0.0 0.0 0.00 0.00 0.00 46 1011.7
20260906161551 95 284 0.0 0.0 0.00 0.00 0.00 46 1011.6
20260906160048 94 294 0.0 0.9 0.00 0.00 0.00 48 1011.5
20260906154545 93 303 0.0 0.0 0.00 0.00 0.00 48 1011.5
20260906153042 93 243 0.0 0.0 0.00 0.00 0.00 47 1011.7
20260906151537 92 157 0.0 0.0 0.00 0.00 0.00 50 1011.6
20260906150032 89 157 0.0 0.0 0.00 0.00 0.00 54 1011.6
20260906144528 87 153 0.0 0.0 0.00 0.00 0.00 58 1011.5
20260906143025 86 154 0.0 0.0 0.00 0.00 0.00 60 1011.6
20260906141530 83 138 0.0 0.0 0.00 0.00 0.00 66 1011.4
20260906140022 82 138 0.0 0.0 0.00 0.00 0.00 68 1011.3
20260906134526 81 134 0.0 0.0 0.00 0.00 0.00 71 1011.0
20260906133019 80 134 0.0 0.0 0.00 0.00 0.00 74 1011.0
20260906131518 79 134 0.0 0.0 0.00 0.00 0.00 77 1010.8
20260906130016 78 134 0.0 0.0 0.00 0.00 0.00 77 1010.7
20260906124514 77 134 0.0 0.0 0.00 0.00 0.00 76 1010.4
20260906123015 76 134 0.0 0.0 0.00 0.00 0.00 78 1010.1
20260906121510 75 134 0.0 0.0 0.00 0.00 0.00 78 1009.9
20260906120008 76 134 0.0 0.0 0.00 0.00 0.00 78 1009.9
20260906114513 76 134 0.0 0.0 0.00 0.00 0.00 77 1009.7
20260906113006 77 134 0.0 0.0 0.00 0.00 0.00 75 1009.4
20260906111601 77 134 0.0 0.0 0.00 0.00 0.00 74 1009.5
20260906110058 78 134 0.0 0.0 0.00 0.00 0.00 71 1009.4
20260906104603 78 134 0.0 0.0 0.00 0.00 0.00 71 1009.5
20260906103054 78 134 0.0 0.0 0.00 0.00 0.00 71 1009.4
20260906101555 79 134 0.0 0.0 0.00 0.00 0.00 69 1009.4
20260906100051 78 134 0.0 0.0 0.00 0.00 0.00 70 1009.3
20260906094602 79 134 0.0 0.0 0.00 0.00 0.00 69 1009.2
20260906093116 79 134 0.0 0.0 0.00 0.00 0.00 69 1009.2
20260906091545 79 134 0.0 0.0 0.00 0.00 0.00 68 1009.2
20260906090041 80 134 0.0 0.0 0.00 0.00 0.00 67 1009.2
20260906084538 81 134 0.0 0.0 0.00 0.00 0.00 64 1009.1
20260906083045 82 134 0.0 0.0 0.00 0.00 0.00 62 1009.0
20260906081538 82 134 0.0 0.0 0.00 0.00 0.00 62 1009.1
20260906080039 82 134 0.0 0.0 0.00 0.00 0.00 62 1009.0
20260906074534 83 134 0.0 0.0 0.00 0.00 0.00 60 1009.0
20260906073031 83 133 0.0 0.0 0.00 0.00 0.00 60 1008.9
20260906071531 83 126 0.0 0.0 0.00 0.00 0.00 61 1009.0
20260906070030 83 126 0.0 0.0 0.00 0.00 0.00 61 1008.9
20260906064528 82 126 0.0 0.0 0.00 0.00 0.00 62 1008.9
20260906063026 83 126 0.0 0.0 0.00 0.00 0.00 61 1008.9
20260906061527 84 135 0.0 0.0 0.00 0.00 0.00 60 1008.8
20260906060021 84 130 0.0 0.0 0.00 0.00 0.00 59 1008.8
20260906054520 85 135 0.0 0.0 0.00 0.00 0.00 58 1009.1
20260906053017 85 123 0.0 0.0 0.00 0.00 0.00 58 1009.1
20260906051516 86 121 0.0 0.0 0.00 0.00 0.00 57 1009.2
20260906050012 86 121 0.0 0.0 0.00 0.00 0.00 55 1009.1
20260906044512 87 129 0.0 0.0 0.00 0.00 0.00 55 1009.2
20260906043011 87 130 0.0 0.0 0.00 0.00 0.00 55 1009.0
20260906041511 87 123 0.0 0.0 0.00 0.00 0.00 54 1009.0
20260906040018 87 131 0.0 0.0 0.00 0.00 0.00 54 1009.0
20260906034510 88 128 0.0 0.0 0.00 0.00 0.00 53 1009.0
20260906033009 88 134 0.0 0.0 0.00 0.00 0.00 52 1008.9
20260906031509 89 144 0.0 0.0 0.00 0.00 0.00 52 1008.7
20260906030010 89 133 0.0 0.0 0.00 0.00 0.00 51 1008.7
20260906024524 90 133 0.0 0.0 0.00 0.00 0.00 50 1008.5
20260906023015 90 128 0.0 0.0 0.00 0.00 0.00 50 1008.3
20260906021509 90 138 0.0 0.0 0.00 0.00 0.00 51 1008.0
20260906020007 90 138 0.0 0.0 0.00 0.00 0.00 50 1007.7
20260906014509 90 138 0.0 0.0 0.00 0.00 0.00 50 1007.5
20260906013017 92 135 0.0 0.0 0.00 0.00 0.00 47 1007.4
20260906011505 92 140 0.0 0.0 0.00 0.00 0.00 47 1007.3
20260906010005 93 140 0.0 0.0 0.00 0.00 0.00 45 1007.1
20260906004505 94 140 0.0 0.0 0.00 0.00 0.00 43 1007.3
20260906003003 95 130 0.0 0.0 0.00 0.00 0.00 42 1007.4
20260906001503 96 120 0.0 0.0 0.00 0.00 0.00 40 1007.5
20260906000002 97 140 0.0 0.0 0.00 0.00 0.00 40 1007.4
20260905234503 98 129 0.0 0.0 0.00 0.00 0.00 38 1007.3
20260905233102 98 152 0.9 6.1 0.00 0.00 0.00 37 1007.2
20260905231600 99 210 0.0 0.0 0.00 0.00 0.00 36 1007.1
20260905230108 99 161 5.2 8.7 0.00 0.00 0.00 37 1007.0
20260905224613 99 132 1.7 7.8 0.00 0.00 0.00 37 1006.9
20260905223058 100 142 6.1 9.6 0.00 0.00 0.00 36 1006.9
20260905221612 100 168 3.5 8.7 0.00 0.00 0.00 36 1006.9
20260905220056 100 162 0.0 9.6 0.00 0.00 0.00 36 1007.0
20260905214557 99 165 0.0 8.7 0.00 0.00 0.00 38 1007.1
20260905213102 100 127 0.0 4.3 0.00 0.00 0.00 36 1007.2
20260905211551 100 167 0.0 7.8 0.00 0.00 0.00 38 1007.3
20260905210053 99 126 0.0 9.6 0.00 0.00 0.00 38 1007.7
20260905204548 100 152 6.1 10.4 0.00 0.00 0.00 38 1008.0